This demonstration page uses our WeatherBlox Daily Observations layout. Learn more.

Left ArrowRight Arrow

Hourly Observations for July 2, 2016

Temp ( °F °C ) Dew Point ( °F °C ) Humidity (%) Winds ( mph kmh ) Pressure ( in mb ) Visibility ( mi km ) Precip ( " mm )
12:53 am 00:53 Cloudy 68 20 50 10 53 53 ESE 13 20 30.00 1016 10 16 0.00 0.00
1:53 am 01:53 Cloudy 65 18.3 54 12.2 68 68 E 7 11 29.98 1015 10 16 0.00 0.03
2:53 am 02:53 Cloudy 60 15.6 57 13.9 90 90 ENE 12 19 29.98 1015 10 16 0.06 1.52
3:53 am 03:53 Cloudy 60 15.6 57 13.9 90 90 E 13 20 29.95 1014 10 16 0.00 0.03
4:53 am 04:53 Cloudy with Rain 60 15.6 58 14.4 93 93 ESE 10 17 29.95 1014 4 6 0.05 1.27
5:05 am 05:05 Cloudy with Light Rain 61 16.1 59 15 93 93 ESE 10 17 29.94 1014 5 8 0.03 0.76
5:53 am 05:53 Cloudy with Light Rain 61 16.1 59 15 93 93 ESE 13 20 29.95 1014 4 6 0.05 1.27
6:53 am 06:53 Cloudy with Mist and Fog 62 16.7 60 15.6 93 93 ESE 14 22 29.95 1014 2 3 0.00 0.03
7:07 am 07:07 Cloudy with Mist and Fog 63 17 61 16 94 94 ESE 14 22 29.94 1014 2 3 0.00 0.00
7:18 am 07:18 Cloudy with Mist and Fog 63 17 61 16 94 94 ESE 13 20 29.94 1014 3 5 0.00 0.00
7:53 am 07:53 Cloudy with Mist and Fog 62 16.7 60 15.6 93 93 ESE 12 19 29.94 1014 5 8 0.00 0.00
8:53 am 08:53 Cloudy with Mist and Fog 62 16.7 61 16.1 96 96 E 12 19 29.95 1014 2 3 0.00 0.03
9:02 am 09:02 Cloudy with Mist and Fog 63 17 61 16 94 94 E 12 19 29.94 1014 2 2 0.00 0.00
9:27 am 09:27 Cloudy with Mist and Fog 61 16.1 60 15.6 97 97 E 13 20 29.97 1015 1 1 0.00 0.00
9:53 am 09:53 Cloudy with Mist and Fog 61 16.1 60 15.6 97 97 ESE 12 19 29.96 1015 1 1 0.00 0.00
10:07 am 10:07 Cloudy with Mist and Fog 61 16 61 16 100 100 ESE 14 22 29.97 1015 1 2 0.00 0.00
10:21 am 10:21 Cloudy with Light Rain 61 16.1 61 16.1 100 100 ESE 12 19 29.97 1015 1 1 0.00 0.03
10:49 am 10:49 Cloudy with Light Rain 61 16 61 16 100 100 ESE 12 19 29.97 1015 1 2 0.01 0.25
10:53 am 10:53 Cloudy with Light Rain 62 16.7 60 15.6 93 93 ESE 13 20 29.96 1015 1 2 0.01 0.25
11:53 am 11:53 Cloudy with Mist and Fog 62 16.7 61 16.1 96 96 ESE 15 24 29.96 1015 1 2 0.01 0.25
12:53 pm 12:53 Cloudy with Mist and Fog 62 16.7 61 16.1 96 96 ESE 12 19 29.96 1015 1 2 0.00 0.00
1:32 pm 13:32 Cloudy with Light Rain 63 17 63 17 100 100 ESE 12 19 29.97 1015 2 3 0.00 0.00
1:45 pm 13:45 Cloudy with Mist and Fog 63 17.2 62 16.7 97 97 ESE 9 15 29.97 1015 2 2 0.00 0.03
1:53 pm 13:53 Cloudy with Mist and Fog 63 17.2 62 16.7 97 97 ESE 9 15 29.96 1015 1 2 0.00 0.03
2:11 pm 14:11 Cloudy with Mist and Fog 63 17.2 62 16.7 97 97 ESE 12 19 29.97 1015 3 5 0.00 0.00
2:53 pm 14:53 Cloudy with Mist and Fog 63 17.2 62 16.7 97 97 E 10 17 29.96 1015 6 10 0.00 0.00
3:25 pm 15:25 Cloudy with Mist and Fog 64 17.8 63 17.2 96 96 E 9 15 29.94 1014 2 3 0.00 0.00
3:33 pm 15:33 Cloudy with Mist and Fog 64 17.8 62 16.7 93 93 E 8 13 29.94 1014 2 2 0.00 0.00
3:50 pm 15:50 Cloudy with Mist and Fog 64 18 63 17 94 94 E 7 11 29.91 1013 2 3 0.00 0.00
3:53 pm 15:53 Cloudy with Mist and Fog 64 17.8 63 17.2 96 96 E 6 9 29.96 1014 2 3 0.00 0.03
4:12 pm 16:12 Cloudy with Mist and Fog 64 18 63 17 94 94 ESE 7 11 29.91 1013 2 3 0.00 0.00
4:23 pm 16:23 Cloudy with Light Rain 64 17.8 63 17.2 96 96 E 7 11 29.94 1014 2 2 0.00 0.03
4:36 pm 16:36 Cloudy with Light Rain 64 18 63 17 94 94 E 7 11 29.91 1013 2 3 0.00 0.00
4:48 pm 16:48 Cloudy with Mist and Fog 64 18 63 17 94 94 E 8 13 29.91 1013 2 3 0.00 0.00
4:53 pm 16:53 Cloudy with Mist and Fog 64 17.8 63 17.2 96 96 E 9 15 29.95 1014 2 2 0.01 0.25
5:06 pm 17:06 Cloudy with Mist and Fog 64 18 63 17 94 94 E 8 13 29.91 1013 2 3 0.00 0.00
5:23 pm 17:23 Cloudy with Mist and Fog 64 18 63 17 94 94 E 8 13 29.91 1013 2 2 0.00 0.00
5:51 pm 17:51 Cloudy with Mist and Fog 64 18 63 17 94 94 E 10 17 29.91 1013 2 3 0.00 0.00
5:53 pm 17:53 Cloudy with Mist and Fog 64 17.8 63 17.2 96 96 E 8 13 29.95 1014 2 3 0.00 0.00
6:16 pm 18:16 Cloudy with Light Rain 64 18 63 17 94 94 ENE 10 17 29.91 1013 3 4 0.00 0.00
6:53 pm 18:53 Cloudy with Light Rain 64 17.8 63 17.2 96 96 E 10 17 29.93 1014 3 4 0.01 0.25
7:00 pm 19:00 Cloudy with Mist and Fog 64 18 63 17 94 94 E 9 15 29.91 1013 3 4 0.00 0.00
7:53 pm 19:53 Cloudy with Mist and Fog 64 17.8 63 17.2 96 96 E 8 13 29.95 1014 2 3 0.00 0.03
8:04 pm 20:04 Cloudy with Mist and Fog 64 17.8 62 16.7 93 93 E 12 19 29.94 1014 3 4 0.00 0.00
8:11 pm 20:11 Cloudy with Mist and Fog 64 17.8 63 17.2 96 96 ENE 13 20 29.94 1014 4 6 0.00 0.00
8:53 pm 20:53 Cloudy with Mist and Fog 64 17.8 62 16.7 93 93 ENE 12 19 29.93 1014 5 8 0.00 0.00
9:53 pm 21:53 Cloudy with Light Rain 63 17.2 62 16.7 97 97 ENE 12 19 29.94 1014 3 5 0.00 0.03
10:11 pm 22:11 Cloudy 63 17.2 62 16.7 97 97 ENE 10 17 29.94 1014 7 11 0.01 0.25
10:53 pm 22:53 Cloudy 63 17.2 62 16.7 97 97 ENE 10 17 29.95 1014 9 14 0.01 0.25
11:17 pm 23:17 Cloudy 63 17.2 62 16.7 97 97 NE 9 15 29.94 1014 10 16 0.00 0.00
11:38 pm 23:38 Cloudy 63 17 61 16 94 94 E 12 19 29.94 1014 10 16 0.00 0.00
11:53 pm 23:53 Cloudy 63 17.2 61 16.1 93 93 E 14 22 29.96 1015 7 11 0.00 0.00

Powered by AerisWeather